{"data":{"norad_id":66698,"intl_designator":"2025-276AJ","name":"IRIDE FM4","alt_names":[],"object_type":"PAYLOAD","status":"ACTIVE","operator":null,"country":"IT","launch_date":"2025-11-28","launch_site_code":"AFWTR","launch_vehicle":null,"mission":null,"orbit_class":"UNKNOWN","rcs_meters":null,"size_class":null,"mass_kg":null,"dimensions":null,"purposes":[],"wikipedia_slug":null,"has_3d_model":false,"image_url":null,"decayed_at":null,"tle_current":{"epoch":"2026-05-25T02:33:49.020768Z","epoch_age_seconds":65541,"freshness":"FRESH","line1":"1 66698U 25276AJ  26145.10681737  .00005228  00000+0  24974-3 0  9993","line2":"2 66698  97.4188 218.9675 0005714  91.6179 268.5710 15.19444921 26919","mean_motion":15.19444921,"eccentricity":0.0005714,"inclination_deg":97.4188,"raan_deg":218.9675,"arg_perigee_deg":91.6179,"mean_anomaly_deg":268.571,"bstar":0.00024974,"rev_number":2691,"period_min":94.771451080457,"perigee_km":503.58260479678,"apogee_km":511.45153026515,"semimajor_km":6885.654067531,"source":"CELESTRAK","updated_at":"2026-05-25T13:38:06.415454Z"}}}